Regional Weather Roundup
Issued by NWS Austin/San Antonio, TX

Home | Current Version | Previous Version | Text Only | Print | Product List | Glossary On
Versions: 1 2 3 4 5 6 7 8 9 10 11 12 13 14 15 16 17 18 19 20 21 22 23 24 25 26 27 28 29 30 31 32 33 34 35 36 37 38 39 40 41 42 43 44 45 46 47 48 49 50
701
ASUS44 KEWX 110902
RWREWX
SOUTH TEXAS REGIONAL WEATHER ROUNDUP
NATIONAL WEATHER SERVICE AUSTIN/SAN ANTONIO TX
300 AM CST WED DEC 11 2019

NOTE: "FAIR" INDICATED FEW OR NO CLOUDS BELOW 12,000 FEET WITH NO
SIGNIFICANT WEATHER AND/OR OBSTRUCTIONS TO VISIBILITY.

* - THESE STATIONS ARE NOT NWS OR FAA STATIONS...AND ARE NOT SUBJECT
    TO NWS AND FAA QUALITY CONTROL.

TXZ171-172-183>190-111000-
TEXAS HILL COUNTRY AND EDWARDS PLATEAU

CITY           SKY/WX    TMP DP  RH WIND       PRES   REMARKS
JUNCTION       CLOUDY    41  37  86 CALM      30.44R
*LLANO         PTCLDY    34  32  93 CALM      30.49S
BURNET         CLEAR     33  30  88 N3        30.46S
*HORSESHOE BAY CLEAR     32  32 100 CALM      30.45S
*LAGO VISTA    CLEAR     33  33  96 NE6       30.44R WCI  28
*KERRVILLE     CLOUDY    39  36  89 CALM      30.42S
*FREDERICKSBRG CLOUDY    38  36  90 CALM      30.42S
*ROCKSPRINGS   FOG       36  36 100 CALM      30.44S VSB<1/4
*BOERNE        CLEAR     34  34 100 CALM      30.43S
*CASTROVILLE   CLEAR     39  38  93 CALM      30.46R
HONDO          PTCLDY    33  31  92 N6        30.44R WCI  28
*UVALDE        CLEAR     33  33 100 NE5       30.45S WCI  29
DEL RIO        CLOUDY    51  42  71 SE7       30.42R
*LAUGHLIN AFB  NOT AVBL
*SPOFFORD      NOT AVBL
*EAGLE PASS    CLOUDY    43  39  87 E5        30.44R WCI  40
CARRIZO SPRGS  CLEAR     39  37  93 CALM      30.45R
$$

TXZ173-191>194-202-209-217>225-228-111000-
CENTRAL AND SOUTH CENTRAL TEXAS

CITY           SKY/WX    TMP DP  RH WIND       PRES   REMARKS
GEORGETOWN     CLOUDY    34  33  96 N5        30.48R WCI  30
*TAYLOR        CLOUDY    38  37  94 N7        30.46S WCI  33
AUSTIN/BERGSTM CLOUDY    39  35  86 N14       30.46R WCI  31
AUSTIN/MABRY   RAIN      37  33  85 NE5       30.47R WCI  33
*PFLUGERVILLE  CLOUDY    37  36  93 N8        30.47R WCI  31
SAN MARCOS     PTCLDY    36  34  92 N8        30.46R WCI  30
NEW BRAUNFELS  CLEAR     37  34  89 N8        30.44R WCI  31
*RANDOLPH AFB  CLEAR     38  35  89 N5        30.44R WCI  35
*SEGUIN        CLEAR     35  34  97 NE6       30.50R FOG     WCI  30
SAN ANTONIO    PTCLDY    39  35  86 N6        30.44S WCI  35
STINSON FIELD  CLEAR     40  37  89 N5        30.44R WCI  37
*KELLY FIELD   NOT AVBL
*PLEASANTON    CLOUDY    43  37  79 NE5       30.46R WCI  40
*KENEDY        CLOUDY    43  38  82 N10       30.46R WCI  37
*LA GRANGE     CLOUDY    45  41  88 NE7       30.43R WCI  41
*GIDDINGS      CLOUDY    44  40  88 CALM      30.45R
*GONZALES      CLOUDY    43  40  87 N5        30.45R WCI  40
$$

TXZ163>164-176>182-195>201-210>213-226-227-235-111000-
SOUTHEAST TEXAS

CITY           SKY/WX    TMP DP  RH WIND       PRES   REMARKS
COLLEGE STN    CLOUDY    45  39  79 NE9       30.45R WCI  40
*BRYAN         CLOUDY    44  41  90 N7        30.47R WCI  40
*CALDWELL      CLOUDY    42  39  89 NE7       30.45S WCI  38
*CROCKETT      NOT AVBL
*BRENHAM       CLOUDY    44  40  86 NE6       30.45R WCI  41
HUNTSVILLE     CLOUDY    42  38  85 NE5       30.44S WCI  39
CONROE         CLOUDY    43  39  86 NE8       30.43S WCI  38
HOUSTON BUSH   CLOUDY    45  39  79 NE15      30.42R WCI  38
HOUSTON HOBBY  CLOUDY    46  39  76 NE15G24   30.40S WCI  40
*HOUSTON SW AP CLOUDY    45  40  85 NE10      30.42S WCI  39
PEARLAND       CLOUDY    47  40  76 N15       30.41S WCI  41
HOUSTON HOOKS  CLOUDY    44  38  79 NE9       30.43R WCI  39
ELLINGTON FLD  CLOUDY    45  41  87 N15       30.39S WCI  38
SUGAR LAND     CLOUDY    47  43  86 NE13      30.40S WCI  41
*HOUSTON EXEC  CLOUDY    45  41  87 NE12      30.43S WCI  39
*CLEVELAND MUN CLOUDY    42  39  89 NE3       30.44S
*WHARTON       CLOUDY    46  40  80 N7        30.41S WCI  42
*COLUMBUS      CLOUDY    42  36  80 N8        30.44R WCI  37
*EAGLE LAKE    CLOUDY    47  44  89 NE12G18   30.42S WCI  41
$$

TXZ214>216-236>238-111000-
THE UPPER TEXAS COAST

CITY           SKY/WX    TMP DP  RH WIND       PRES   REMARKS
*ORANGE        CLOUDY    45  41  84 N10       30.42R WCI  40
PORT ARTHUR    CLOUDY    45  41  86 N15       30.39R WCI  38
GALVESTON      CLOUDY    49  44  83 N23G29    30.39R WCI  42
ANGLETON       CLOUDY    47  42  83 NE15      30.39S WCI  41
*BAY CITY      CLOUDY    49  45  84 NE12      30.39R WCI  45
PALACIOS       CLOUDY    48  42  80 N14       30.40R WCI  42
$$

TXZ229>234-239>247-111000-
TEXAS COASTAL BEND AND RIO GRANDE PLAINS

CITY           SKY/WX    TMP DP  RH WIND       PRES   REMARKS
VICTORIA       CLOUDY    47  41  80 N13       30.42R WCI  41
*BEEVILLE      NOT AVBL
ROCKPORT       CLOUDY    50  42  74 N15       30.42R WCI  45
*PORT ARANSAS  CLOUDY    49  44  83 N14G22    30.42S WCI  44
*PORT LAVACA   CLOUDY    48  45  87 N12       30.42R WCI  44
*INGLESIDE     CLOUDY    49  45  85 NE12G18   30.42R WCI  45
CORPUS CHRISTI CLOUDY    48  42  80 NE15G23   30.42R WCI  42
CORPUS NAS     CLOUDY    49  45  86 NE17      30.41R WCI  43
*ROBSTOWN      CLOUDY    48  43  82 N10       30.43R WCI  43
ALICE          CLOUDY    49  42  77 N13       30.42R WCI  44
KINGSVILLE NAS CLOUDY    50  44  80 N7        30.42R WCI  47
COTULLA        CLOUDY    48  42  80 NE7       30.45R WCI  45
LAREDO         CLOUDY    48  41  76 NE8       30.44R WCI  44
$$

TXZ248>255-111000-
DEEP SOUTH TEXAS

CITY           SKY/WX    TMP DP  RH WIND       PRES   REMARKS
BROWNSVILLE    CLOUDY    51  46  83 NW16      30.36R
PORT ISABEL    CLOUDY    51  46  83 NW20      30.35R
HARLINGEN      CLOUDY    49  46  90 NW14      30.38R WCI  44
*HEBBRONVILLE  CLOUDY    46  42  84 CALM      30.42S
MCALLEN        CLOUDY    51  44  77 N12       30.41R
*WESLACO       CLOUDY    49  43  80 N10       30.40S WCI  44
FALFURRIAS     CLOUDY    51  44  77 N9G17     30.42R
EDINBURG       CLOUDY    49  43  79 N12       30.42R WCI  44
*ZAPATA        CLOUDY    49  42  75 N6        30.43S WCI  47
$$

TXZ213>215-236>238-242>244-246-247-251-254-255-111000-
CMAN STATIONS

STATION/POSITION TIME  TEMP    WIND        PRES    WAVE
                       AIR SEA DIR/SP/G            HT/PER
                 (UTC) (F)     (DEG/KT/KT) (MB)    (FT/S)
SABINE PASS      0824   46 63   30/ 16/ 24 1030.3
SEA RIM ST PARK  0800   46      10/ 13/ 20 1028.3
NORTH JETTY/GLS  0824   47 60   20/ 22/ 29 1027.4
EAGLE POINT      0824   47 61   20/ 14/ 21 1028.7
MORGANS POINT    0824   46 62   10/ 11/ 15 1029.6
PORT O`CONNOR    0824   49 58   10/ 18/ 25 1029.0
PORT ARANSAS     0800   49 63  360/ 17/ 20 1028.9
MALAQUITE BEACH  0824   50 65  350/ 16/ 19 1029.0
BAFFIN BAY       0824   49 63  320/ 15/ 17 1029.4
PORT ISABEL      0824   51 69  320/ 16/ 21 1027.3
$$




USA.gov is the U.S. government's official web portal to all federal, state and local government web resources and services.